Location: Acequia del Cap
(41.7000°N, 0.6167°E)
Time: 23:09:25
(UTC+00:00)

Cosmos 2219 - Pass Details

Date: 07 August 2020
Orbit: 834 x 860 km, 71.1° (Epoch: 22 September)

Event Time Altitude Azimuth Distance (km) Brightness Sun altitude
Exits shadow 00:45:21 33° 81° (E) 1,367 4.4 -31.2°
Drops below altitude 10° 00:49:22 10° 40° (NE) 2,451 6.3 -31.0°
Sets 00:51:58 0° 32° (NNE) 3,389 7.4 -30.9°
